Le nostre stazioni meteo in Italia

Pubblicità
Il mio iltempo24.it
Geneve-Cointrin, Svizzera (6700): Temperatura & dewpoint: 16.06.2017 22:00:00 - 22.06.2017 22:00:00 (CEST)Geneve-Cointrin, Svizzera (6700): Temperatura 5cm: 16.06.2017 22:00:00 - 22.06.2017 22:00:00 (CEST)Geneve-Cointrin, Svizzera (6700): velocità del vento & gusts: 16.06.2017 22:00:00 - 22.06.2017 22:00:00 (CEST)Geneve-Cointrin, Svizzera (6700): direzione del vento: 16.06.2017 22:00:00 - 22.06.2017 22:00:00 (CEST)Geneve-Cointrin, Svizzera (6700): reduced air pressure: 16.06.2017 22:00:00 - 22.06.2017 22:00:00 (CEST)Geneve-Cointrin, Svizzera (6700): visibility: 16.06.2017 22:00:00 - 22.06.2017 22:00:00 (CEST)Geneve-Cointrin, Svizzera (6700): ore di luce: 16.06.2017 22:00:00 - 22.06.2017 22:00:00 (CEST)Geneve-Cointrin, Svizzera (6700): precipitazioni: 16.06.2017 22:00:00 - 22.06.2017 22:00:00 (CEST)
Data & Tempo tt [°C] td [°C] tt 5cm [°C] ff [km/h] ff [kn] fx [km/h] fx [kn] dd ppp [hPa] vv [km] sd [min] rr [mm]
22.06.2017 22:00:00 28,2 18,4 25,0 9 5 16 9 OSO 1014,7 - 0 0,0
22.06.2017 21:00:00 29,9 18,5 - 9 5 30 16 OSO 1013,9 - 21 0,0
22.06.2017 20:00:00 31,1 18,6 31,2 21 11 32 18 SSO 1013,6 35 42 0,0
22.06.2017 19:00:00 32,6 16,9 34,8 23 12 37 20 SSO 1012,9 - 60 0,0
22.06.2017 18:00:00 33,9 16,7 36,9 24 13 34 18 SSO 1012,8 - 60 0,0
22.06.2017 17:00:00 33,6 17,4 38,0 22 12 35 19 S 1013,2 35 60 0,0
22.06.2017 16:00:00 33,3 17,2 38,3 16 9 34 18 SSO 1013,4 - 60 0,0
22.06.2017 15:00:00 32,9 16,4 39,1 14 8 29 16 SO 1013,8 - 60 0,0
22.06.2017 14:00:00 32,6 17,3 38,8 14 8 23 13 SSO 1014,2 35 60 0,0
22.06.2017 13:00:00 31,0 18,7 37,8 10 5 33 18 S 1015,0 - 60 0,0
22.06.2017 12:00:00 29,7 17,6 36,5 11 6 20 11 SSO 1015,5 - 60 0,0
22.06.2017 11:00:00 27,8 17,2 35,6 8 4 14 7 O 1015,9 40 60 0,0
22.06.2017 10:00:00 25,9 17,7 33,0 3 2 9 5 SO 1016,5 - 60 0,0
22.06.2017 09:00:00 24,2 16,7 30,0 2 1 6 4 O 1016,6 - 60 0,0
22.06.2017 08:00:00 22,1 17,8 26,4 2 1 6 4 NE 1016,7 45 60 0,0
22.06.2017 07:00:00 19,9 15,8 19,6 3 2 8 5 NO 1017,0 - 36 0,0
22.06.2017 06:00:00 18,8 14,8 15,6 3 2 5 3 SO 1017,1 - 0 0,0
22.06.2017 05:00:00 18,5 14,9 15,5 4 2 6 4 NO 1016,9 - 0 0,0
22.06.2017 04:00:00 19,4 14,6 16,4 4 2 9 5 OSO 1016,6 - 0 0,0
22.06.2017 03:00:00 20,4 14,9 17,1 4 2 8 5 O 1016,4 - 0 0,0
22.06.2017 02:00:00 21,1 14,6 17,8 1 1 8 5 OSO 1016,2 - 0 0,0
22.06.2017 01:00:00 21,9 15,5 18,0 2 1 5 3 NNO 1016,2 - 0 0,0
22.06.2017 00:00:00 23,0 15,5 19,2 1 1 6 4 ESE 1015,8 - 0 0,0
21.06.2017 23:00:00 24,5 15,6 20,5 3 2 10 5 O 1015,3 35 0 0,0
21.06.2017 22:00:00 26,4 16,2 - 3 2 10 5 ONO 1014,5 - 0 0,0
21.06.2017 21:00:00 28,0 18,2 24,5 6 3 8 5 NO 1013,5 - 24 0,0
21.06.2017 20:00:00 29,7 17,5 29,1 7 4 13 7 NNE 1012,9 30 59 0,0
21.06.2017 19:00:00 31,3 15,4 33,9 10 5 13 7 NE 1012,1 - 60 0,0
21.06.2017 18:00:00 31,5 16,4 36,2 7 4 16 8 E 1012,0 - 60 0,0
21.06.2017 17:00:00 31,5 15,8 37,5 9 5 18 10 NE 1012,2 25 60 0,0
21.06.2017 16:00:00 31,4 16,2 39,1 5 3 18 10 N 1012,6 - 57 0,0
21.06.2017 15:00:00 28,3 17,3 28,8 6 4 18 10 N 1013,9 - 2 0,0
21.06.2017 14:00:00 30,6 15,7 37,8 11 6 19 11 ENE 1013,8 27 60 0,0
21.06.2017 13:00:00 29,8 16,1 38,4 3 2 13 7 ENE 1014,6 - 60 0,0
21.06.2017 12:00:00 27,9 15,8 35,7 7 4 13 7 NE 1015,1 - 60 0,0
21.06.2017 11:00:00 26,9 16,5 33,0 5 3 11 6 N 1015,4 30 57 0,0
21.06.2017 10:00:00 25,4 15,6 - 5 3 16 9 NE 1015,7 - 60 0,0
21.06.2017 09:00:00 24,3 17,1 - 4 2 8 4 NNE 1016,0 - 50 0,0
21.06.2017 08:00:00 22,3 16,4 25,6 6 3 8 5 NE 1016,1 30 60 0,0
21.06.2017 07:00:00 20,5 16,2 18,9 2 1 9 5 OSO 1016,2 - 32 0,0
21.06.2017 06:00:00 18,1 16,0 15,1 4 2 8 5 ONO 1016,5 - 0 0,0
21.06.2017 05:00:00 18,7 16,1 15,5 1 1 6 3 NNO 1016,2 - 0 0,0
21.06.2017 04:00:00 19,6 16,3 16,5 4 2 7 4 SO 1016,2 - 0 0,0
21.06.2017 03:00:00 19,9 16,4 16,1 1 1 9 5 ENE 1016,3 - 0 0,0
21.06.2017 02:00:00 20,4 16,6 16,7 1 1 5 3 NNO 1016,8 - 0 0,0
21.06.2017 01:00:00 20,9 16,6 17,4 3 2 6 4 SO 1016,6 - 0 0,0
21.06.2017 00:00:00 22,5 15,7 18,2 2 1 13 7 OSO 1016,2 - 0 0,0
20.06.2017 23:00:00 24,7 15,7 21,9 8 4 18 10 O 1015,7 50 0 0,0
20.06.2017 22:00:00 26,2 15,8 23,5 11 6 21 12 OSO 1015,1 - 0 0,0
20.06.2017 21:00:00 28,7 15,9 26,3 9 5 15 8 SO 1014,3 - 42 0,0
20.06.2017 20:00:00 29,5 16,3 28,9 11 6 21 11 O 1013,9 50 60 0,0
20.06.2017 19:00:00 31,8 14,8 33,4 15 8 27 15 SO 1013,4 - 60 0,0
20.06.2017 18:00:00 32,7 14,8 35,7 16 9 35 19 SO 1013,6 - 60 0,0
20.06.2017 17:00:00 32,7 13,6 36,7 14 7 25 14 SO 1014,0 50 60 0,0
20.06.2017 16:00:00 32,1 13,1 37,9 16 8 26 14 SSO 1014,5 - 60 0,0
20.06.2017 15:00:00 31,3 12,5 37,5 18 10 32 17 SO 1015,1 - 60 0,0
20.06.2017 14:00:00 30,8 12,3 36,7 18 10 29 16 SO 1015,9 55 60 0,0
20.06.2017 13:00:00 30,1 12,5 - 20 11 30 16 SSO 1016,4 - 50 0,0
20.06.2017 12:00:00 29,4 14,5 35,1 15 8 29 16 SO 1016,8 - 60 0,0
20.06.2017 11:00:00 28,0 16,1 33,5 10 5 19 10 SSO 1017,3 55 60 0,0
20.06.2017 10:00:00 25,6 14,6 31,4 6 4 13 7 OSO 1017,9 - 49 0,0
20.06.2017 09:00:00 23,6 13,5 29,0 7 4 11 6 O 1018,2 - 60 0,0
20.06.2017 08:00:00 22,0 13,3 26,5 5 3 7 4 OSO 1018,5 60 60 0,0
20.06.2017 07:00:00 18,6 14,6 18,1 2 1 6 3 SE 1019,1 - 43 0,0
20.06.2017 06:00:00 17,4 12,9 13,7 2 1 7 4 O 1019,4 - 0 0,0
20.06.2017 05:00:00 18,0 13,1 13,0 4 2 11 6 ONO 1019,3 - 0 0,0
20.06.2017 04:00:00 19,4 12,9 14,8 8 4 13 7 O 1019,0 - 0 0,0
20.06.2017 03:00:00 20,1 12,8 14,6 10 6 19 10 OSO 1018,9 - 0 0,0
20.06.2017 02:00:00 21,4 12,8 16,5 9 5 17 9 OSO 1018,6 - 0 0,0
20.06.2017 01:00:00 22,3 12,9 19,3 11 6 22 12 OSO 1018,4 - 0 0,0
20.06.2017 00:00:00 23,3 13,1 20,9 16 9 23 13 SO 1018,1 - 0 0,0
19.06.2017 23:00:00 23,5 14,1 20,5 15 8 20 11 SO 1017,6 70 0 0,0
19.06.2017 22:00:00 26,7 14,6 22,4 13 7 19 10 SO 1016,9 - 0 0,0
19.06.2017 21:00:00 28,0 15,5 24,9 13 7 26 14 SO 1016,3 - 49 0,0
19.06.2017 20:00:00 29,3 15,1 30,0 16 9 29 16 SSO 1015,9 70 60 0,0
19.06.2017 19:00:00 30,7 15,3 32,6 17 9 27 15 SSO 1015,6 - 60 0,0
19.06.2017 18:00:00 31,5 13,8 34,9 16 9 32 18 SSO 1015,6 - 60 0,0
19.06.2017 17:00:00 31,1 15,4 35,9 16 8 29 16 SO 1016,1 70 60 0,0
19.06.2017 16:00:00 31,2 14,9 36,3 13 7 27 14 SSO 1016,4 - 60 0,0
19.06.2017 15:00:00 30,1 15,6 35,9 11 6 22 12 OSO 1016,9 - 60 0,0
19.06.2017 14:00:00 29,4 15,4 36,1 10 5 27 15 SSO 1017,8 70 60 0,0
19.06.2017 13:00:00 28,3 15,2 34,7 13 7 32 18 SO 1018,5 - 60 0,0
19.06.2017 12:00:00 26,0 17,2 34,4 10 5 19 10 SSO 1019,3 - 60 0,0
19.06.2017 11:00:00 23,8 16,3 32,4 5 3 15 8 NE 1020,1 70 60 0,0
19.06.2017 10:00:00 22,9 15,6 30,5 6 3 13 7 NE 1020,5 - 60 0,0
19.06.2017 09:00:00 20,7 15,8 27,7 4 2 10 5 ENE 1021,1 - 60 0,0
19.06.2017 08:00:00 19,5 15,8 23,9 3 2 7 4 NNE 1021,2 70 60 0,0
19.06.2017 07:00:00 16,7 14,0 16,3 2 1 4 2 NNO 1021,4 - 43 0,0
19.06.2017 06:00:00 15,2 13,1 11,8 2 1 4 2 N 1021,5 - 0 0,0
19.06.2017 05:00:00 15,4 13,4 12,1 2 1 7 4 ONO 1021,1 - 0 0,0
19.06.2017 04:00:00 15,6 13,5 13,0 5 3 7 4 O 1021,2 - 0 0,0
19.06.2017 03:00:00 16,0 14,0 12,8 3 2 4 2 O 1020,9 - 0 0,0
19.06.2017 02:00:00 17,2 13,9 13,3 2 1 5 3 SO 1020,7 - 0 0,0
19.06.2017 01:00:00 17,7 14,3 13,7 3 2 5 3 O 1020,7 - 0 0,0
19.06.2017 00:00:00 18,2 15,3 14,4 1 1 3 2 SO 1020,4 - 0 0,0
18.06.2017 23:00:00 19,6 15,4 15,1 1 1 4 2 NO 1020,0 70 0 0,0
18.06.2017 22:00:00 20,8 15,5 16,8 1 1 8 5 ONO 1019,1 - 0 0,0
18.06.2017 21:00:00 23,3 14,5 20,8 6 3 10 6 NE 1018,3 - 47 0,0
18.06.2017 20:00:00 25,6 14,3 27,2 6 4 16 9 NNE 1017,7 70 60 0,0
18.06.2017 19:00:00 25,9 14,6 29,3 14 7 18 10 NE 1017,5 - 60 0,0
18.06.2017 18:00:00 25,8 13,8 31,5 10 6 20 11 NNE 1017,5 - 60 0,0
18.06.2017 17:00:00 26,3 13,4 32,5 9 5 19 11 NE 1017,6 60 60 0,0
18.06.2017 16:00:00 25,8 14,4 32,5 11 6 26 14 NNE 1018,0 - 60 0,0
18.06.2017 15:00:00 24,9 14,6 31,2 16 9 29 15 ENE 1018,4 - 60 0,0
18.06.2017 14:00:00 23,7 13,8 30,3 21 11 32 17 NE 1018,9 50 60 0,0
18.06.2017 13:00:00 23,0 13,6 29,4 19 10 34 18 NE 1019,5 - 60 0,0
18.06.2017 12:00:00 21,2 12,9 27,7 23 12 37 20 NE 1020,0 - 60 0,0
18.06.2017 11:00:00 20,2 12,8 26,5 21 11 38 21 NE 1020,4 55 60 0,0
18.06.2017 10:00:00 19,5 12,1 24,5 24 13 38 20 ENE 1020,4 - 60 0,0
18.06.2017 09:00:00 18,4 11,8 22,4 22 12 39 21 NE 1020,7 - 60 0,0
18.06.2017 08:00:00 18,0 11,8 20,6 23 13 38 20 NE 1020,7 60 60 0,0
18.06.2017 07:00:00 17,5 12,1 17,7 23 12 42 23 NE 1020,5 - 44 0,0
18.06.2017 06:00:00 17,4 12,0 15,2 14 8 35 19 NNE 1020,7 - 0 0,0
18.06.2017 05:00:00 17,6 11,8 15,5 14 8 41 22 NNE 1020,6 - 0 0,0
18.06.2017 04:00:00 17,9 11,7 16,0 17 9 53 28 NNE 1020,7 - 0 0,0
18.06.2017 03:00:00 18,9 11,4 16,9 29 15 50 27 NNE 1020,3 - 0 0,0
18.06.2017 02:00:00 19,5 12,1 17,7 33 18 55 30 NNE 1020,2 - 0 0,0
18.06.2017 01:00:00 20,5 12,0 18,2 29 16 47 25 NNE 1020,5 - 0 0,0
18.06.2017 00:00:00 20,7 11,9 18,5 26 14 47 26 NNE 1020,5 - 0 0,0
17.06.2017 23:00:00 20,8 10,8 18,4 23 13 40 22 NNE 1020,3 70 0 0,0
17.06.2017 22:00:00 21,5 10,4 - 21 11 38 21 NNE 1019,9 - 0 0,0
17.06.2017 21:00:00 22,4 9,6 20,2 23 12 47 26 NNE 1019,7 - 49 0,0
17.06.2017 20:00:00 23,8 9,6 24,0 28 15 44 24 NE 1019,3 70 60 0,0
17.06.2017 19:00:00 24,8 9,8 26,4 27 14 48 26 NE 1019,2 - 60 0,0
17.06.2017 18:00:00 25,3 10,7 27,9 24 13 48 26 NE 1019,4 - 60 0,0
17.06.2017 17:00:00 25,1 10,1 28,5 34 18 48 26 NE 1020,0 70 60 0,0
17.06.2017 16:00:00 25,1 11,3 30,3 23 12 42 23 NNE 1020,4 - 60 0,0
17.06.2017 15:00:00 24,0 10,7 28,7 29 16 44 24 NE 1021,0 - 60 0,0
17.06.2017 14:00:00 23,8 11,8 28,8 26 14 41 22 NE 1021,5 70 60 0,0
17.06.2017 13:00:00 22,3 11,0 28,2 24 13 39 21 NE 1022,5 - 60 0,0
17.06.2017 12:00:00 21,3 11,1 26,6 27 14 46 25 NE 1022,9 - 60 0,0
17.06.2017 11:00:00 20,5 11,8 26,0 26 14 43 23 NE 1023,3 75 60 0,0
17.06.2017 10:00:00 19,4 11,0 24,1 28 15 44 24 NE 1023,6 - 60 0,0
17.06.2017 09:00:00 18,4 10,7 21,9 29 16 42 23 NE 1023,6 - 60 0,0
17.06.2017 08:00:00 18,0 10,4 20,3 18 10 40 22 NNE 1023,5 75 60 0,0
17.06.2017 07:00:00 16,2 9,2 14,9 6 3 15 8 N 1023,8 - 44 0,0
17.06.2017 06:00:00 14,6 9,0 10,2 7 4 16 9 N 1024,0 - 0 0,0
17.06.2017 05:00:00 13,4 9,6 8,9 3 1 9 5 NNO 1024,1 - 0 0,0
17.06.2017 04:00:00 14,8 10,3 11,3 6 3 14 7 N 1023,7 - 0 0,0
17.06.2017 03:00:00 15,5 10,5 - 8 4 27 14 N 1023,9 - 0 0,0
17.06.2017 02:00:00 17,1 10,9 13,5 8 4 27 15 N 1023,9 - 0 0,0
17.06.2017 01:00:00 18,9 10,6 15,8 14 8 25 13 NE 1023,3 - 0 0,0
17.06.2017 00:00:00 18,5 11,1 12,8 4 2 9 5 N 1023,2 - 0 0,0
16.06.2017 23:00:00 19,0 11,2 14,5 4 2 22 12 NNO 1022,6 60 0 0,0
16.06.2017 22:00:00 21,3 10,5 18,3 9 5 28 15 N 1021,9 - 0 0,0

tt = Temperatura
td = dewpoint
tt 5cm = Temperatura 5cm
ff = velocità del vento
fx = gusts
dd = direzione del vento
ppp = reduced air pressure
vv = visibility
sd = ore di luce
rr = precipitazioni

Stazioni seguenti

WeatherPro
AMSI
MeteoEarth